Regional Weather Roundup
Issued by NWS

Home | Current Version | Previous Version | Text Only | Print | Product List | Glossary Off
Versions: 1 2 3 4 5 6 7 8 9 10 11 12 13 14 15 16 17 18 19 20 21 22 23 24 25 26 27 28 29 30 31 32 33 34 35 36 37 38 39 40 41 42 43 44 45 46 47 48 49 50

000
ASUS45 KBOU 030507
RWRCO

WEATHER ROUNDUP FOR COLORADO
NATIONAL WEATHER SERVICE DENVER/BOULDER CO
1000 PM MST MON MAR 02 2015

NOTE: "FAIR" INDICATES FEW OR NO CLOUDS BELOW 12000 FEET WITH NO
SIGNIFICANT WEATHER AND/OR OBSTRUCTIONS TO VISIBILITY.

COZ001>005-013-030-031-030600-
...NORTHWEST COLORADO...

CITY           SKY/WX    TMP DP  RH WIND       PRES   REMARKS
CRAIG          FAIR      36  27  69 SW14G23   29.64S
HAYDEN         FAIR      34  27  75 SW15G24   29.64S WCI  24
MEEKER         FAIR      36  24  62 SW25G37   29.67R
MOUNT WERNER   NOT AVBL
STEAMBOAT SPGS FAIR      34  25  68 S5        29.64F WCI  30
WALDEN         CLOUDY    30  21  69 S15G28    29.61F WCI  19
$$

COZ006>008-011-030600-
...WEST CENTRAL VALLEYS...

CITY           SKY/WX    TMP DP  RH WIND       PRES   REMARKS
GRAND JUNCTION MOCLDY    37  31  78 CALM      29.77R
MONTROSE       MOCLDY    38  25  59 SW18G28   29.86R
EAGLE          MOCLDY    34  30  86 E8        29.71F WCI  27
RIFLE          LGT RAIN  35  32  88 W18G30    29.76R FOG     WCI  24
DELTA          FAIR      40  32  71 SW9       29.84R
NUCLA          FAIR      36  30  80 S15G21    29.91R
$$

COZ017>023-064>068-030600-
...SOUTHWEST COLORADO...

CITY           SKY/WX    TMP DP  RH WIND       PRES   REMARKS
DURANGO        CLOUDY    32  32 100 W7        29.93R WCI  26
CORTEZ         FAIR      35  29  78 S13       29.93R WCI  26
PAGOSA SPRINGS LGT SNOW  31  31  99 SW6       29.92R WCI  25
TELLURIDE      CLOUDY    28  16  61 SW14G29   29.91R WCI  16
WOLF CREEK PAS NOT AVBL
$$

COZ009-010-012-014-032>034-037-058>063-030600-
...CENTRAL COLORADO...

CITY           SKY/WX    TMP DP  RH WIND       PRES   REMARKS
ASPEN          CLOUDY    31  24  75 VRB7      29.68F WCI  24
BUENA VISTA    FLURRIES  33  26  75 W20       29.72R WCI  21
COPPER MTN     SNOW      25  18  74 SW17G30   29.72S VSB 1/4 WCI  11
BERTHOUD PASS  LGT SNOW  16  10  79 W18G33    29.70F VSB 3/4 WCI  -1
COTTONWOOD PAS LGT SNOW  30  23  74 W15G30    29.72S WCI  19
GUNNISON       CLOUDY    34  18  51 SW12G18   29.81S WCI  25
KREMMLING      LGT SNOW  32  28  86 W7        29.71R VSB 1   WCI  26
LEADVILLE      LGT SNOW  25  20  81 SW10G21   29.71S WCI  15
SALIDA         CLOUDY    34  29  79 W12G21    29.82R WCI  26
SUNLIGHT       CLOUDY    23  21  93 S5          N/A  WCI  17
WILKERSON PASS CLOUDY    23  21  93 SW14G25   29.72R FOG     WCI  11
$$

COZ069>075-030600-
...SAN LUIS VALLEY/SANGRE DE CRISTO MOUNTAINS...

CITY           SKY/WX    TMP DP  RH WIND       PRES   REMARKS
ALAMOSA        MOCLDY    34  28  79 W15G26    29.80R WCI  24
LA VETA PASS   CLOUDY    28  27  93 S25G45    29.72R FOG     WCI  14
SAGUACHE       FLURRIES  32  30  93 N7        29.76F WCI  26
$$

COZ035-036-038>040-030600-
...NORTHERN COLORADO FRONT RANGE...

CITY           SKY/WX    TMP DP  RH WIND       PRES   REMARKS
DENVER INTL AP FAIR      30  23  75 NW12      29.58R HAZE    WCI  20
DMNS CITY PARK   N/A     31  24  74 N3G10     29.58F
AURORA         MOCLDY    29  23  79 W3        29.58R
FRONT RANGE AP NOT AVBL
ERIE MUNI ARPT MOCLDY    31  26  82 S6        29.58S HAZE    WCI  26
BOULDER MUN AP FAIR      32  28  86 S3        29.56F FOG
CENTENNIAL     MOCLDY    28  23  81 NW7       29.59R HAZE    WCI  21
BROOMFIELD     CLOUDY   N/A N/A N/A N16       29.57R HAZE
FORT COLLINS   FAIR      30  25  80 S7        29.58S WCI  23
LONGMONT       FAIR      32  26  79 CALM      29.58F
$$

COZ041-046-047-076>085-087-088-030600-
...PIKES PEAK/PALMER DIVIDE AND SOUTHERN FOOTHILLS...

CITY           SKY/WX    TMP DP  RH WIND       PRES   REMARKS
COLO. SPRINGS  MOCLDY    29  26  89 NW9       29.63S WCI  20
A. F. ACADEMY  FAIR      28  26  92 N7        29.62R WCI  20
ELLICOTT       NOT AVBL
FALCON         FAIR      29  27  90 W9        29.62S WCI  21
FORT CARSON    FAIR      30  28  91 S10       29.62R WCI  21
LIMON          FAIR      31  26  82 S13G20    29.56F WCI  21
MONUMENT HILL  FAIR      36  30  80 SW21      29.59R
TRINIDAD       FAIR      40  31  70 W24       29.70R
$$

COZ042>045-048>051-090-091-030600-
...NORTHEAST COLORADO...

CITY           SKY/WX    TMP DP  RH WIND       PRES   REMARKS
GREELEY ARPT   FAIR      30  21  69 SW3       29.58R
AKRON          FAIR      26  26 100 CALM      29.54R FOG
BURLINGTON     FAIR      33  30  88 S17       29.55F WCI  22
WRAY           MOCLDY    33  31  92 SE8       29.55F WCI  26
STERLING       FAIR      28  27  93 N10       29.58R FOG     WCI  19
HOLYOKE        NOT AVBL
FORT MORGAN    FAIR      28  26  94 NW13      29.59R WCI  17
$$

COZ086-089-092>099-030600-
...SOUTHEAST COLORADO...

CITY           SKY/WX    TMP DP  RH WIND       PRES   REMARKS
PUEBLO         FAIR      28  27  96 SW5       29.62F WCI  23
LA JUNTA       FAIR      33  31  92 SW6       29.63R WCI  28
LAMAR          FAIR      32  31  96 CALM      29.60F
SPRINGFIELD      N/A     40  34  79 SW16G24   29.67F
$$


USA.gov is the U.S. government's official web portal to all federal, state and local government web resources and services.